S-NET B

Last updated on Sat Sep 12 2026 00:03:19 GMT+0000 (Coordinated Universal Time)

1 43187U 18014H 26254.15747158 .00003696 00000+0 18854-3 0 9996 2 43187 97.5266 158.3950 0010463 78.0861 282.1545 15.17318336471798
UTC large
Height (km)
Speed (km/s)
/
Latitude / Longitude
Inclination (degrees)
Orbital Period (minutes)
Azimuth
Elevation
Range (km)
Doppler Factor

Next 0 passes for location: London (51.5072 / 0.1276)

No passes found over London.
S-NET B